Theta_e
352 350 348 346 346 346 346 344 344 343 341 340 339 339 339 338 338 338 338 338 338 338 337 337 337 337 336 336 335 334 335 336 337 338 339 340 340 341 343 344 345 346 346 347 348 348 349 349 350 350 349 348 348 347 346 346 345 345 345 344 342 343 344 344 342 341 338 334 332 333 335 336 336 336 334 336 340 339 337 336 336 335 334 333 332
353 352 349 347 346 346 347 347 347 345 342 340 339 338 338 338 338 338 337 337 337 336 336 336 336 336 335 335 334 333 334 337 338 339 340 341 342 342 343 344 346 346 346 347 348 348 349 349 350 350 349 349 349 348 348 347 346 345 345 344 343 343 343 343 342 340 336 333 333 334 335 334 334 335 333 335 339 339 336 336 336 335 333 332 331
354 352 350 348 346 346 348 349 349 346 343 340 339 339 339 338 338 337 337 336 335 335 335 336 336 336 337 336 336 335 335 337 338 340 341 342 342 343 343 344 345 346 345 346 347 348 349 349 349 349 349 349 349 349 349 348 347 346 345 344 343 342 342 342 342 339 335 333 332 334 337 336 334 334 333 335 339 338 337 337 335 334 332 329 330
354 352 351 350 348 347 347 348 348 347 345 342 340 339 339 338 337 336 336 335 335 334 335 336 337 337 338 339 339 339 338 338 338 340 342 343 343 343 342 342 344 344 344 345 346 347 348 349 349 349 349 349 349 349 350 348 347 346 345 344 343 342 342 341 339 335 333 333 333 334 336 335 336 337 334 335 338 338 338 337 334 332 330 328 329
353 353 352 351 350 348 345 344 346 347 345 343 341 340 339 337 336 335 335 335 335 335 335 336 337 338 339 340 340 341 341 341 340 340 341 342 343 342 342 341 342 343 343 343 345 346 347 348 349 349 349 350 350 351 350 348 346 345 345 345 342 341 342 339 335 331 331 333 333 334 336 336 337 337 337 336 336 337 338 338 334 330 329 328 329
353 352 351 351 351 350 347 343 344 345 343 341 340 339 338 337 337 336 336 336 336 336 336 337 337 338 339 339 340 341 341 341 341 341 341 342 343 342 341 341 341 342 342 342 344 344 345 347 348 349 349 350 351 351 351 348 347 346 346 345 341 340 339 335 332 328 330 333 331 331 334 337 337 337 338 338 337 336 337 338 334 329 328 328 327
353 352 352 351 351 350 348 343 342 342 341 340 340 339 339 338 338 338 337 337 337 337 338 337 338 338 338 339 338 339 339 339 339 340 341 341 342 342 341 341 341 342 342 342 343 343 344 346 347 348 349 350 351 352 351 349 348 347 346 344 339 338 336 330 329 328 330 333 331 328 328 334 337 337 337 338 338 337 336 337 334 329 328 328 327
353 352 352 352 351 350 347 343 341 341 341 341 341 341 340 340 339 339 339 338 338 338 338 338 338 338 338 338 338 338 338 338 338 339 340 341 342 342 341 341 341 341 342 342 342 342 343 344 346 347 349 350 351 351 350 349 349 348 347 342 337 336 332 327 325 325 330 333 331 328 327 329 335 337 337 337 338 339 337 336 334 330 328 328 328
352 352 352 351 350 348 345 343 341 341 342 342 341 341 342 342 342 341 340 340 340 340 340 339 338 338 338 338 338 338 338 339 339 339 339 340 341 341 341 341 340 341 341 342 342 342 343 343 345 347 348 350 351 350 350 350 350 349 346 342 335 333 329 325 323 323 329 333 332 330 329 329 333 336 336 336 337 338 338 337 334 332 330 329 329
352 352 351 350 349 347 346 345 343 342 343 342 341 341 342 343 343 342 341 341 341 341 340 340 340 339 339 339 338 338 338 339 339 340 339 339 339 340 340 341 340 340 341 341 341 342 342 343 344 345 347 349 350 350 349 349 349 348 346 342 335 331 326 323 323 323 327 332 333 332 331 330 333 335 336 336 336 336 337 337 336 335 333 331 330
351 351 351 350 349 348 348 347 345 344 344 344 343 343 343 343 343 343 342 342 342 342 342 341 340 340 339 339 338 338 338 339 339 340 339 338 338 338 339 340 339 340 340 341 341 342 342 342 342 343 344 347 348 347 347 347 348 348 347 342 336 331 326 323 323 324 326 330 332 332 332 332 333 335 336 337 336 337 336 337 337 335 334 333 332
351 350 351 351 350 350 350 348 346 345 345 345 344 345 346 345 344 343 343 344 344 345 345 345 344 343 342 341 340 339 339 339 339 339 339 338 337 337 338 338 339 339 340 340 340 341 341 342 342 342 342 344 344 345 345 346 346 347 346 341 337 333 328 323 322 323 325 327 329 330 331 332 332 333 335 336 336 336 336 337 337 335 335 334 332
350 350 349 350 350 349 349 348 347 345 344 343 343 346 347 346 345 344 344 344 346 347 347 347 348 347 346 345 343 342 340 339 339 339 338 337 337 337 337 338 338 338 338 339 338 339 340 341 341 341 341 342 342 343 344 345 345 346 345 340 337 334 330 325 322 322 322 324 327 329 330 331 331 331 333 334 335 334 333 335 336 334 335 335 333
350 350 349 349 349 348 347 346 346 345 343 342 343 345 345 344 345 345 344 345 345 346 347 347 347 348 348 348 346 345 343 341 340 339 338 337 337 337 337 337 338 338 337 337 336 337 338 339 339 339 340 341 341 342 343 344 345 345 344 340 337 336 333 327 324 322 322 322 324 328 329 330 331 331 331 332 334 334 332 333 333 332 333 334 333
350 350 349 348 347 346 346 344 344 344 343 342 342 343 344 343 343 344 344 345 345 345 346 346 346 346 347 347 347 347 346 345 344 342 340 338 337 337 337 337 337 337 337 336 336 336 336 336 337 337 338 339 341 342 342 343 344 344 342 339 337 336 334 329 325 324 323 322 323 324 326 327 329 330 331 332 334 333 333 333 332 332 333 333 332
350 350 349 349 347 346 346 344 343 343 343 343 341 340 341 340 341 342 342 343 344 345 345 345 345 345 346 346 347 347 347 347 347 345 343 341 339 338 337 337 337 337 336 336 336 336 335 335 335 335 337 338 340 342 342 342 342 343 341 339 337 336 334 329 326 324 324 324 324 323 323 323 324 326 329 331 332 331 331 332 333 333 334 335 335
349 349 349 348 348 347 347 345 344 344 343 343 341 338 338 338 339 339 340 342 343 343 344 344 344 344 345 345 346 346 347 346 347 346 346 345 343 340 338 337 337 337 336 336 335 335 335 335 335 335 335 338 340 341 341 341 341 341 340 339 337 336 334 330 326 323 322 323 323 322 321 321 321 322 324 328 330 330 329 330 332 333 333 335 336
346 347 347 348 348 347 347 346 344 343 342 342 340 338 338 338 338 339 338 338 339 340 342 343 344 344 344 345 345 345 346 345 346 346 346 347 346 344 342 340 338 337 337 336 335 335 335 335 335 335 335 337 340 341 341 341 341 340 340 339 338 337 336 332 326 322 322 322 321 320 320 321 320 320 321 323 326 328 328 328 330 331 332 333 334
344 345 346 347 347 347 347 347 346 344 343 342 341 341 340 340 340 340 339 337 337 338 340 342 342 343 343 343 343 344 345 345 345 345 346 347 347 346 345 343 339 337 336 336 335 335 335 335 335 335 336 337 340 340 340 341 340 340 339 339 338 336 336 334 328 323 321 321 321 320 320 320 320 321 321 321 322 324 326 326 328 330 331 331 332
340 342 344 345 345 346 346 346 346 345 343 343 342 342 342 341 341 341 341 341 341 341 341 341 341 342 342 342 343 343 344 345 345 345 346 346 347 347 346 346 343 340 337 335 335 334 334 335 335 336 337 338 339 340 340 340 340 339 338 338 337 336 336 336 332 326 321 321 321 321 321 321 322 322 321 321 322 322 323 324 326 329 331 332 332
337 339 341 342 343 344 345 345 345 345 345 344 344 344 343 342 342 342 342 342 342 342 341 341 341 342 343 342 342 343 343 344 345 345 345 346 346 347 346 346 345 344 340 337 334 333 333 333 335 336 338 338 339 340 340 341 341 340 339 338 337 336 336 336 335 331 326 323 321 321 322 323 324 324 322 322 322 322 322 323 323 326 328 330 331
336 337 337 340 341 342 343 345 345 345 346 345 345 345 344 344 343 342 343 343 343 342 342 342 342 342 342 342 343 343 343 344 344 345 345 346 346 347 346 346 346 345 345 341 337 334 332 332 333 335 337 338 339 339 340 341 342 342 340 338 337 335 335 335 336 335 333 328 326 323 323 323 325 326 325 324 323 321 321 322 321 322 323 324 326
336 337 337 339 339 340 342 343 344 344 345 345 345 345 345 344 343 343 343 343 342 343 342 342 342 342 342 343 343 343 344 344 345 345 345 345 346 346 347 347 347 346 346 345 341 337 334 332 332 333 335 337 338 340 340 340 341 342 342 340 338 336 335 335 335 336 336 335 333 330 328 326 326 326 326 325 325 323 321 321 320 320 320 320 321
337 337 337 338 338 338 340 341 342 342 344 345 345 345 345 344 344 343 343 342 342 343 342 342 343 342 343 343 343 344 344 344 345 345 345 346 346 346 347 347 347 347 346 346 345 343 339 335 332 332 333 334 336 339 340 340 341 341 343 342 340 338 336 335 335 336 337 337 337 336 334 332 330 329 327 326 325 324 322 320 320 319 320 320 320
336 337 338 338 337 338 338 339 340 341 342 344 343 344 344 344 344 343 343 343 343 343 343 342 343 343 344 343 343 343 344 344 345 345 345 346 346 346 347 347 347 347 347 347 347 346 344 339 334 332 333 334 335 337 339 340 341 341 342 342 342 341 339 337 336 335 336 337 338 338 337 336 335 334 332 330 327 326 324 322 321 320 320 320 320
334 335 337 338 338 338 338 338 339 340 341 342 342 343 343 343 344 343 343 343 343 343 343 342 343 344 344 343 343 343 344 344 344 345 345 345 346 346 347 347 348 348 347 347 347 347 346 343 337 333 333 334 334 336 338 339 340 341 341 342 342 342 341 339 338 336 336 336 337 339 339 339 339 338 337 336 334 331 327 324 323 323 321 320 321
332 334 335 337 338 338 338 338 338 339 339 340 341 341 342 342 342 342 343 343 343 343 343 343 343 344 343 343 343 343 344 344 344 344 345 345 346 346 347 347 347 348 348 348 347 347 347 345 341 336 333 333 334 335 337 338 340 340 341 341 342 342 342 341 339 338 337 336 337 339 340 340 339 339 340 340 340 338 334 328 325 325 325 324 323
330 331 332 335 335 337 338 338 338 339 339 339 340 340 340 341 341 342 342 343 342 343 343 343 343 344 343 343 343 343 343 344 344 344 345 345 345 346 347 347 347 348 348 348 348 348 347 346 344 340 335 333 333 334 336 337 339 340 340 341 341 342 342 342 340 339 338 337 336 338 340 340 340 339 340 341 341 342 341 336 330 327 327 328 326
328 328 328 330 332 334 336 337 338 339 338 339 339 340 340 340 341 341 341 342 342 342 342 343 343 343 343 343 343 344 344 345 345 345 345 345 346 346 347 347 347 348 348 348 348 348 348 347 346 343 339 335 333 334 335 337 338 339 340 340 340 341 341 341 341 340 340 338 337 338 339 339 340 340 341 342 343 343 343 341 337 331 329 329 329
328 329 328 328 329 330 332 335 338 339 339 339 339 339 340 340 341 341 341 341 341 342 343 343 343 343 343 343 344 344 344 345 345 345 345 346 346 347 347 347 348 348 348 349 348 348 348 348 348 346 342 337 334 333 334 335 337 338 339 339 339 340 340 341 341 341 341 339 339 339 339 339 339 341 342 343 344 344 344 343 341 337 332 330 330
328 329 329 328 328 329 331 333 336 337 338 339 339 340 340 340 341 341 341 341 341 342 343 343 343 343 344 344 345 345 345 345 345 346 346 346 346 346 347 347 348 348 348 348 349 349 349 348 348 348 344 339 334 332 334 335 336 337 338 339 339 339 340 340 340 341 341 341 341 341 341 341 341 342 343 344 345 345 345 343 341 339 336 332 331
327 330 329 328 328 329 331 332 332 335 337 338 339 340 340 340 341 340 341 341 341 342 342 342 343 344 344 345 345 345 345 345 346 346 346 346 347 347 347 348 348 348 349 349 349 349 349 349 349 348 345 340 334 332 333 334 335 336 337 338 338 339 339 340 340 341 341 341 342 343 344 344 344 344 345 346 346 346 345 344 341 340 338 333 330
327 328 328 327 327 329 331 331 332 333 335 337 339 340 340 341 341 341 341 341 342 342 342 342 343 344 344 345 345 345 346 346 346 346 347 347 347 347 348 348 348 348 348 349 349 349 349 349 349 349 346 342 336 333 333 333 334 335 337 338 338 338 339 340 339 340 340 341 343 344 345 345 345 346 346 347 347 347 346 344 342 340 338 334 330
326 327 327 326 326 329 332 332 333 333 334 337 338 339 341 340 340 341 341 341 342 342 342 343 343 344 344 344 345 345 345 346 346 347 348 348 348 348 348 348 349 349 349 349 349 349 349 349 350 349 348 344 339 335 334 334 334 334 336 337 338 338 339 339 339 340 340 341 343 345 346 347 347 347 348 348 348 347 347 345 342 340 338 334 330
326 326 326 327 327 330 334 336 336 335 335 337 338 339 340 341 341 342 341 342 342 342 343 343 343 344 345 345 345 346 346 346 347 347 348 348 348 348 349 349 349 349 349 349 349 349 349 349 350 350 349 346 341 337 336 335 334 334 335 336 337 338 338 339 340 340 341 342 344 346 347 348 348 348 348 349 348 348 347 345 343 341 339 335 331
327 327 328 329 329 332 337 338 337 337 336 336 338 339 340 341 341 342 342 342 342 342 343 344 344 345 345 345 346 346 346 347 347 348 349 349 349 349 349 350 350 350 350 350 349 350 350 349 350 350 350 348 345 343 341 339 338 337 337 337 337 337 338 339 339 340 342 343 345 346 348 349 349 349 349 349 349 348 347 345 343 341 339 337 335
329 330 331 332 334 337 340 339 338 338 337 337 338 339 340 341 342 342 342 342 342 343 343 343 344 344 345 346 346 346 347 347 348 348 349 348 349 349 349 349 350 349 349 349 349 350 350 350 350 350 350 350 349 349 346 342 342 342 341 340 338 337 338 339 339 341 342 344 346 347 348 349 350 350 350 350 349 348 347 344 342 341 339 338 338
335 336 336 336 338 341 341 339 338 339 339 339 339 339 340 341 342 342 343 343 343 343 344 344 344 344 345 345 345 346 347 347 348 348 348 348 349 349 349 349 349 349 349 349 349 350 350 350 350 350 350 349 350 350 347 343 342 342 342 341 340 339 340 340 341 343 343 344 346 347 349 350 350 349 350 350 349 347 346 344 342 341 339 338 338
340 340 340 339 341 343 342 340 340 340 340 341 340 340 341 341 342 342 343 343 343 343 344 344 345 345 345 345 345 346 347 347 348 348 348 349 349 349 349 349 350 350 350 350 350 350 349 349 349 349 350 349 350 350 347 343 342 341 342 343 343 343 343 342 344 345 345 345 346 348 349 350 350 349 350 350 349 347 345 343 341 340 339 338 337
343 341 340 340 343 344 344 343 341 341 341 341 341 341 341 341 342 342 343 343 344 344 345 345 345 345 345 346 346 347 347 347 347 348 349 349 349 349 350 350 350 351 351 351 351 351 351 351 350 349 348 349 350 351 348 345 342 341 341 343 344 344 343 344 346 347 346 346 347 348 350 350 351 351 351 350 348 346 344 343 342 341 340 338 335
346 344 343 344 345 346 345 345 344 344 343 343 343 342 342 342 342 343 343 343 344 344 345 345 346 346 346 347 347 347 348 348 348 349 349 349 350 350 351 350 351 351 351 351 352 351 352 351 351 352 352 350 350 350 349 347 345 342 340 342 344 343 342 344 346 347 346 346 348 349 350 351 352 352 351 350 348 346 344 343 342 342 339 336 332
350 349 347 346 346 346 346 346 347 347 346 345 345 344 344 344 344 344 344 345 345 346 346 347 347 347 347 347 347 347 348 348 348 350 350 351 351 351 351 351 351 352 352 353 352 353 354 353 354 355 355 356 355 354 352 350 347 342 340 341 342 341 340 343 346 346 347 347 348 350 351 352 353 352 351 350 348 347 345 343 342 341 335 330 327
352 351 348 346 344 344 345 345 346 348 348 348 348 347 347 346 346 346 346 346 347 347 347 348 348 348 348 348 348 348 349 349 349 349 349 350 351 352 352 353 353 353 353 354 354 354 355 356 356 356 356 356 356 355 354 354 352 346 341 340 341 340 341 343 345 346 347 348 349 351 353 354 354 352 351 350 349 347 345 343 342 338 331 327 328
351 351 349 347 344 344 345 346 347 348 349 350 349 349 349 348 348 349 348 349 349 349 349 350 349 349 350 350 349 350 349 350 350 350 351 352 352 352 353 353 354 354 354 355 356 356 356 357 357 357 356 355 356 355 355 354 355 354 347 340 339 340 343 345 346 347 348 349 351 353 355 355 353 352 350 349 348 347 344 342 340 335 329 328 330
351 350 350 349 347 347 347 348 349 349 349 350 352 351 352 351 351 351 351 351 351 351 351 351 351 351 351 351 351 351 351 351 351 351 352 352 353 353 354 354 355 356 356 357 358 358 358 357 357 357 356 355 354 354 355 355 355 356 354 349 344 343 344 346 347 348 349 351 354 355 355 354 352 350 348 347 346 345 343 340 336 331 328 330 331
348 349 350 349 349 349 348 347 348 348 349 350 351 352 353 353 353 354 354 353 353 354 354 354 355 355 354 353 353 353 353 352 352 352 353 353 353 354 354 355 355 357 358 359 359 359 359 358 358 357 355 356 356 355 355 356 356 355 355 355 353 350 347 346 347 349 351 353 355 355 355 353 350 348 347 345 344 343 340 336 332 330 330 332 332
345 346 347 347 347 348 347 346 346 347 347 347 348 348 349 349 350 351 351 351 351 352 353 355 357 358 358 357 356 355 355 354 353 353 353 353 354 355 355 356 356 357 359 359 358 358 359 358 359 359 358 358 359 357 355 356 356 355 356 355 355 353 350 349 350 351 353 355 356 355 353 350 348 346 344 343 342 339 336 333 331 331 333 333 332
344 345 345 344 344 344 345 345 345 345 346 346 346 347 346 346 347 347 346 347 347 347 348 349 352 355 357 358 358 357 356 355 355 355 354 354 355 355 356 356 356 356 358 359 358 359 359 358 358 359 359 360 359 358 356 356 356 356 356 355 354 353 351 351 352 353 354 356 355 353 350 348 346 344 342 340 338 335 333 331 330 332 333 332 330
343 343 342 342 342 343 344 345 344 345 345 345 345 345 344 344 344 343 343 343 343 343 345 345 347 350 353 357 359 360 359 358 357 357 356 356 356 356 356 358 357 357 357 357 357 358 358 358 358 358 359 359 359 357 356 356 356 356 356 356 355 353 351 351 353 354 355 356 353 350 348 346 345 342 340 338 335 333 332 331 330 331 331 330 329
343 343 343 343 343 343 343 343 343 343 343 343 342 342 342 342 341 341 341 341 340 341 342 342 344 345 347 352 356 358 359 360 360 359 359 358 357 356 356 357 357 357 357 357 358 358 359 359 359 358 358 358 358 356 355 356 356 356 356 356 356 354 353 353 354 355 356 354 351 348 347 346 344 341 339 335 333 333 332 331 330 331 331 329 329
343 343 343 342 342 341 341 341 342 342 342 342 342 341 341 341 341 341 341 341 341 341 341 342 342 343 343 345 347 349 351 353 355 355 356 356 357 357 357 357 357 357 357 357 357 357 357 358 358 359 358 357 357 357 357 357 356 356 356 356 356 355 354 354 355 356 355 352 349 347 346 344 342 340 337 335 333 332 331 330 331 331 330 329 330
Wind_Speed
32 35 39 39 39 37 38 39 38 38 38 38 38 37 37 36 35 34 33 32 32 31 31 30 30 29 29 28 28 27 26 25 24 23 22 22 21 19 19 18 16 16 14 14 13 12 11 10 9 9 9 8 7 7 8 10 11 12 11 11 9 6 6 7 7 8 8 7 5 4 6 7 6 5 5 4 4 3 6 6 5 4 3 2 3
28 33 39 41 41 41 39 35 34 37 38 39 39 38 37 36 36 35 34 33 33 33 32 32 31 30 30 29 28 27 26 26 25 24 23 22 21 20 20 19 17 17 16 15 14 13 12 11 10 9 9 9 8 8 9 10 11 12 11 10 8 7 7 8 8 8 6 4 3 3 4 6 6 5 5 5 6 4 5 5 3 3 3 3 3
28 34 40 42 42 42 39 32 31 35 37 39 39 37 37 37 36 35 35 34 33 33 33 33 32 30 29 28 27 26 26 25 25 24 23 22 21 21 20 19 18 17 17 16 15 14 13 11 10 10 9 9 9 9 10 10 11 11 10 10 8 8 8 9 9 7 4 3 2 2 2 3 4 6 5 6 8 5 4 4 2 2 2 3 3
30 33 37 39 41 43 41 36 33 34 36 40 40 39 39 38 37 37 36 35 34 34 34 33 31 30 29 28 26 25 25 24 25 24 24 22 22 21 20 20 19 18 17 17 17 15 13 12 11 11 10 10 10 10 10 11 11 11 10 9 8 7 8 8 9 7 4 3 2 1 2 3 4 5 6 8 8 6 5 4 2 0 1 2 2
31 34 36 38 41 43 44 42 38 37 39 41 42 41 40 39 38 37 36 36 35 35 34 33 32 31 30 29 28 27 27 27 27 27 27 25 23 22 21 20 19 19 19 18 18 16 14 13 12 12 11 11 10 10 11 10 10 10 10 10 8 7 7 8 9 6 4 4 3 2 2 3 3 4 5 7 9 7 6 5 3 2 1 1 2
30 34 37 38 40 41 44 45 44 43 43 43 42 41 41 39 38 38 37 37 36 36 35 34 33 33 32 32 31 31 31 30 30 29 28 26 24 23 21 21 20 20 20 20 20 18 16 15 14 14 13 12 11 11 11 11 11 10 10 9 9 8 8 8 8 6 4 5 6 4 3 3 3 4 5 6 8 9 8 6 6 4 3 2 3
29 32 35 37 39 42 45 47 47 46 45 43 42 41 41 40 39 39 38 38 37 37 36 35 35 34 34 33 33 32 32 31 30 29 27 25 23 22 21 21 21 21 21 20 20 18 17 16 15 15 14 13 12 12 12 11 11 11 10 9 9 8 8 8 7 6 5 6 7 6 5 5 3 4 5 5 6 8 9 9 8 7 5 4 4
30 32 35 38 41 44 46 47 48 48 46 44 43 43 42 41 40 39 39 39 38 38 37 37 36 35 35 35 34 33 32 31 30 28 26 25 23 23 22 22 21 21 21 20 20 19 18 17 16 16 16 15 14 13 12 12 12 12 10 9 9 8 8 8 7 6 7 7 7 6 6 7 6 5 5 5 5 5 8 10 10 8 7 7 6
32 34 39 41 43 45 46 46 47 48 47 46 45 44 43 42 41 40 40 40 39 39 38 38 37 36 36 36 35 34 33 32 30 29 28 26 24 24 23 23 22 22 22 21 20 19 18 17 17 17 17 16 15 14 13 13 13 12 10 9 9 7 7 7 7 7 8 8 7 6 5 6 7 7 6 6 6 5 6 9 9 8 8 8 7
33 35 40 44 45 44 44 44 46 47 47 47 47 45 44 44 43 42 41 41 40 39 39 38 37 37 37 36 36 35 34 33 32 31 30 28 26 25 24 23 23 23 22 22 21 20 19 18 18 18 18 18 17 16 15 14 13 12 10 9 9 8 7 7 7 8 9 9 7 6 6 6 6 7 7 6 7 7 6 6 7 8 8 9 8
37 37 37 42 45 43 43 44 45 46 47 48 48 47 46 46 45 44 43 42 42 40 39 38 37 37 37 37 37 36 35 34 33 33 31 30 28 27 26 25 24 23 23 22 21 21 20 19 19 19 19 19 18 17 16 14 13 12 11 10 10 9 8 8 8 8 9 10 9 9 8 7 7 7 7 7 8 8 7 6 6 8 8 9 9
40 40 38 40 43 43 43 44 45 46 48 48 48 47 48 48 47 46 45 44 43 41 39 38 37 37 37 37 37 37 36 35 35 34 32 31 30 28 28 26 25 24 24 23 23 22 22 21 20 20 20 20 19 18 16 14 13 13 12 11 11 10 9 9 8 8 10 10 10 10 9 8 8 8 7 9 9 9 9 7 7 9 10 10 11
40 45 46 44 45 46 46 46 47 47 48 48 48 48 49 49 48 48 47 46 45 43 42 40 39 38 37 37 36 36 36 36 36 35 34 32 31 30 29 28 27 26 25 24 23 23 23 22 21 21 21 20 19 18 17 15 14 14 13 13 12 11 10 10 9 8 9 10 10 10 10 9 8 8 8 9 10 10 10 9 9 11 10 9 10
39 44 49 50 50 50 49 48 48 48 48 48 48 49 50 50 50 49 49 48 47 46 44 43 41 40 38 37 36 36 35 35 36 35 35 34 33 32 30 29 29 27 26 25 23 23 23 22 22 21 21 21 20 19 17 16 15 14 14 14 13 12 11 11 11 9 9 10 11 11 11 10 9 9 9 9 9 9 9 9 10 10 9 9 9
39 43 49 53 54 53 51 50 49 48 48 49 49 50 51 51 50 50 50 50 49 47 46 45 43 41 40 38 37 36 35 34 34 34 34 34 34 33 33 31 30 28 27 26 24 23 23 23 22 22 22 22 21 20 18 17 16 15 16 16 15 13 13 13 12 12 11 11 11 11 11 11 11 10 10 10 9 9 9 9 9 8 8 8 9
37 41 49 54 55 54 53 51 50 49 49 49 51 52 52 51 51 51 50 50 49 49 48 46 44 42 41 40 39 38 37 36 35 33 32 33 33 34 34 32 31 30 29 28 26 25 25 24 24 23 23 23 22 21 20 18 17 16 17 17 16 15 14 14 14 13 13 12 12 12 11 12 12 12 12 11 10 9 9 9 9 9 8 7 7
37 42 50 55 55 55 54 53 52 51 50 51 51 51 52 52 51 51 50 50 50 50 49 47 45 44 42 40 40 39 38 37 36 34 33 32 32 32 32 32 32 31 30 29 28 27 26 26 25 25 25 24 23 23 21 20 18 18 18 18 17 16 15 14 15 14 14 13 13 13 12 12 12 13 13 13 12 11 10 10 10 10 10 9 8
40 46 50 53 54 55 55 55 54 53 52 52 51 50 51 52 52 51 51 51 50 50 49 48 46 45 43 42 41 40 39 38 37 35 34 33 32 30 30 31 31 31 30 30 29 27 27 27 26 26 26 25 24 24 23 21 20 19 19 19 19 18 17 16 16 16 15 15 15 14 14 13 12 13 13 13 13 12 11 11 12 12 12 12 11
38 45 48 50 53 55 56 56 56 56 54 53 51 50 51 51 52 52 51 50 49 49 49 49 48 46 45 44 42 41 40 39 38 37 36 35 33 31 30 29 29 30 30 29 29 28 28 28 27 27 27 26 25 25 24 22 21 20 20 20 20 20 19 18 17 17 17 16 16 15 15 14 13 13 13 14 14 13 12 12 13 13 13 14 14
39 43 45 49 52 54 56 57 57 57 56 54 53 53 52 52 52 52 51 50 50 50 49 49 48 47 46 45 44 43 42 41 40 39 38 37 35 33 31 29 29 30 30 30 29 29 29 29 28 28 29 27 26 26 25 24 23 22 21 21 21 21 21 20 18 18 18 17 17 17 16 14 13 13 14 14 14 14 14 14 14 15 15 15 15
39 41 44 48 50 52 54 55 56 57 56 55 54 54 54 53 53 53 52 52 51 50 49 47 46 46 47 46 45 44 43 43 42 41 40 39 37 35 33 30 30 29 30 30 31 30 30 30 30 30 30 28 27 27 26 25 24 23 22 22 22 22 22 22 21 19 19 18 18 17 17 15 14 14 15 15 15 15 15 15 15 16 17 17 16
37 39 42 44 47 50 51 52 54 55 56 55 54 55 55 55 55 54 54 53 52 51 49 47 46 46 45 45 44 44 43 43 43 43 42 41 39 37 34 33 32 31 30 30 31 32 32 31 31 32 31 29 29 28 27 27 26 25 23 23 23 23 24 23 23 22 21 20 19 18 17 16 15 15 15 16 16 16 16 16 17 17 17 18 17
31 34 36 38 43 46 47 49 52 53 54 54 54 55 56 57 56 55 55 55 53 53 51 49 48 47 45 44 44 44 43 43 43 43 43 42 41 38 36 35 34 33 32 31 31 32 33 33 33 33 33 31 30 29 29 29 28 26 25 25 24 24 24 24 24 23 22 21 20 18 17 17 16 16 16 16 16 17 18 18 18 18 17 18 17
24 27 31 34 38 40 42 45 48 50 52 53 55 56 57 57 56 56 56 55 54 54 53 51 50 48 47 46 46 45 44 44 44 44 43 42 41 39 38 37 35 35 34 33 32 32 33 34 35 35 35 33 32 31 31 30 29 28 27 26 25 25 25 25 25 24 23 22 21 20 18 17 16 16 17 16 17 18 19 19 19 19 18 17 17
23 25 28 30 33 36 40 43 45 48 50 53 54 56 56 56 56 56 56 55 54 54 54 53 51 50 50 49 48 47 46 46 46 45 44 43 42 41 39 38 37 37 36 34 33 33 34 36 37 37 36 35 34 33 33 32 31 30 29 28 27 26 25 25 25 25 24 23 22 21 20 19 18 18 18 18 18 18 19 20 20 20 19 18 17
22 23 25 28 31 34 38 41 44 47 49 51 53 54 55 55 56 55 55 55 55 54 54 54 52 52 52 51 50 49 48 47 46 45 44 43 43 42 40 39 38 38 37 36 36 35 36 37 38 38 38 36 35 35 34 34 33 32 31 30 29 28 27 26 25 25 25 24 23 22 21 21 20 20 19 18 18 18 20 21 22 21 20 18 17
18 19 22 25 29 33 36 39 41 45 47 49 51 53 54 54 54 54 54 54 54 54 54 54 53 52 52 52 51 49 48 48 47 45 45 44 43 42 41 40 39 39 39 38 37 37 37 37 38 39 39 38 37 36 36 35 35 34 33 32 30 29 28 27 27 26 25 24 24 23 22 22 22 22 21 19 18 18 19 21 22 22 21 20 19
16 17 19 23 27 31 34 36 39 42 45 47 49 51 52 53 53 53 53 53 54 54 53 52 52 52 53 52 50 49 49 48 47 46 45 45 44 43 42 41 40 40 40 39 38 38 38 38 38 39 40 39 39 38 38 37 37 36 35 33 32 31 30 29 28 27 25 25 24 24 24 24 24 23 21 20 19 19 19 19 20 21 22 21 20
18 19 20 21 25 28 31 34 37 39 42 44 48 49 50 51 53 53 53 53 53 53 51 51 52 53 52 51 49 49 50 49 49 47 46 46 45 44 43 42 41 41 40 40 39 39 39 39 39 39 40 41 41 40 40 40 38 37 36 35 33 33 31 30 29 28 27 25 25 24 25 25 24 23 21 21 20 20 20 19 18 19 21 22 22
18 19 19 20 22 24 27 30 34 38 40 43 45 48 49 51 52 52 53 53 52 52 50 51 53 52 51 50 50 50 50 50 49 48 47 46 46 45 44 43 42 41 41 41 40 40 41 41 40 40 41 42 43 43 42 41 40 38 36 35 34 34 32 32 31 30 28 26 25 24 24 24 24 24 23 23 22 22 22 20 19 19 20 21 22
19 17 18 18 19 21 22 26 30 34 38 41 44 46 48 50 51 51 51 51 51 50 50 51 52 51 50 51 50 50 50 50 49 48 47 47 46 46 45 44 43 43 42 42 42 42 41 41 41 41 42 44 45 44 43 42 40 38 37 35 34 34 33 33 33 31 29 27 25 24 23 24 24 25 24 23 23 23 22 21 21 20 20 21 22
22 19 19 20 21 20 19 21 25 30 35 39 42 44 46 48 49 49 49 50 50 50 50 51 51 50 51 51 50 50 50 49 49 48 48 47 46 46 46 45 45 44 43 44 43 42 42 42 42 43 43 45 46 44 43 42 40 39 37 36 34 34 34 35 34 32 29 27 25 25 24 24 25 24 23 23 24 22 21 22 23 23 21 21 22
25 22 22 23 23 21 19 19 22 25 31 35 39 43 44 45 45 46 47 49 49 49 49 50 50 50 50 50 50 50 50 49 49 49 48 47 47 47 47 47 46 44 44 45 44 43 43 43 44 44 44 45 46 45 44 43 41 39 38 36 34 34 35 35 34 31 29 27 27 26 25 25 25 23 22 23 23 22 21 21 23 24 23 22 22
26 24 24 25 26 24 21 19 19 22 27 31 36 39 40 41 43 44 46 47 47 48 48 49 50 50 50 50 50 50 49 49 49 49 49 48 48 48 48 48 47 46 46 46 45 44 45 45 45 45 45 45 46 46 45 44 42 41 38 36 35 34 35 36 34 30 28 28 28 27 26 25 24 22 22 23 22 21 20 20 21 24 25 23 22
25 25 25 26 26 24 21 18 17 20 25 30 34 35 37 40 43 43 44 45 46 47 48 48 49 50 50 50 50 50 50 50 50 50 49 49 49 49 48 49 49 48 48 47 46 45 45 45 45 46 46 46 46 47 47 45 43 41 39 37 36 35 36 36 34 30 29 29 29 28 27 27 25 23 23 22 21 20 19 19 20 24 25 23 22
24 25 25 25 24 23 20 17 14 16 21 26 31 33 36 39 41 42 42 43 44 45 46 47 48 49 49 49 49 49 49 49 49 49 49 49 49 49 49 49 49 48 49 48 47 46 46 46 46 47 47 47 47 47 48 46 44 42 40 38 37 37 37 38 35 31 29 30 30 29 29 28 26 23 23 21 19 19 20 20 21 24 24 20 19
22 23 23 22 21 19 15 12 11 13 15 20 26 30 34 36 39 40 41 42 43 44 45 45 46 47 48 47 46 47 47 48 48 49 50 49 49 49 49 49 48 48 49 49 48 48 47 46 47 47 47 48 47 47 48 47 44 41 40 40 39 38 39 39 36 32 30 30 31 31 31 29 26 24 22 20 18 19 20 20 21 24 23 18 16
17 18 18 17 16 12 8 6 8 9 10 14 20 25 29 33 36 38 39 41 42 42 42 44 45 46 44 42 42 44 45 46 48 48 49 49 49 49 49 49 48 48 49 49 48 49 48 47 47 47 47 48 47 46 47 47 44 42 41 41 40 39 40 41 38 34 32 31 32 32 31 28 25 23 21 19 19 19 19 20 21 23 21 18 17
10 10 10 10 9 7 6 6 7 9 9 10 14 20 25 29 32 35 37 39 39 39 40 42 43 41 39 39 40 43 44 45 45 46 48 48 48 48 48 49 49 49 49 49 49 49 48 46 46 47 47 47 47 47 48 47 45 43 42 41 41 40 41 41 39 36 34 33 34 33 31 27 25 23 21 20 19 20 20 20 21 21 18 16 17
7 5 5 5 6 7 6 6 7 9 10 10 12 16 20 24 27 30 33 34 35 35 36 37 37 37 37 39 41 43 43 42 43 44 45 46 46 47 47 48 49 49 50 51 51 52 51 49 48 47 48 49 48 47 48 48 46 43 41 40 40 41 41 41 40 37 35 35 36 34 30 27 25 23 21 20 20 21 21 21 21 21 19 17 17
11 9 9 9 8 8 8 7 7 8 10 11 12 12 15 18 21 24 26 27 28 28 29 30 32 34 36 39 41 41 40 40 41 42 44 45 46 46 47 48 48 48 50 51 52 53 53 53 53 52 50 51 51 50 48 48 47 45 42 41 41 41 41 40 39 37 36 37 37 33 28 25 24 23 22 22 22 22 23 22 23 23 21 19 17
16 15 14 15 13 12 11 10 10 10 10 11 13 12 12 13 15 17 20 21 22 24 26 28 30 32 34 36 38 39 38 38 39 41 42 43 44 46 48 48 48 49 51 52 53 53 54 54 54 53 50 47 48 50 50 48 47 46 43 42 43 42 39 38 38 37 37 38 35 30 25 23 22 22 23 23 23 23 23 23 23 22 20 18 18
18 17 16 17 17 16 16 15 14 13 12 12 13 13 12 12 13 14 16 17 19 20 23 25 27 30 32 33 35 36 36 37 38 40 41 41 43 46 47 48 50 51 51 52 53 54 54 50 46 46 48 46 45 49 52 50 48 47 45 43 44 42 38 36 37 36 37 36 31 27 24 21 21 23 24 23 23 24 23 23 22 21 20 20 21
17 17 17 16 16 16 16 16 15 14 13 12 11 11 12 11 11 12 12 13 14 15 17 19 22 25 28 30 31 32 34 36 37 39 40 42 43 45 47 49 50 51 51 53 51 50 51 49 43 43 49 51 50 52 54 54 51 49 46 45 44 42 38 36 35 35 35 32 28 25 23 21 22 24 24 24 24 24 24 24 23 21 22 24 24
15 16 16 16 16 16 15 16 16 14 13 13 12 10 10 10 9 9 10 10 11 11 12 14 16 19 22 24 26 28 31 33 35 37 40 42 44 46 47 49 50 49 49 47 43 41 44 46 47 50 54 55 55 56 54 54 54 51 47 46 44 41 38 36 35 35 34 30 27 26 24 23 24 25 25 24 24 24 25 25 23 23 25 27 25
14 14 14 13 14 13 13 13 14 13 13 12 11 10 9 8 7 7 7 7 8 9 10 11 12 14 16 19 22 25 28 30 33 35 38 40 43 45 47 49 49 48 45 41 39 39 40 39 43 53 58 54 54 57 56 54 53 50 48 46 43 39 36 36 36 36 34 30 28 27 25 25 26 26 25 24 24 25 26 25 24 25 27 27 25
13 14 13 13 12 11 11 10 10 9 9 9 8 8 7 6 5 4 4 4 5 6 7 9 10 11 13 15 18 22 25 28 30 33 37 39 41 43 45 47 48 45 40 38 40 43 44 40 38 43 47 45 44 51 56 56 54 52 50 47 43 39 36 37 38 38 36 33 30 28 27 29 28 26 25 24 25 27 27 27 26 27 28 26 23
12 12 12 12 12 11 10 9 8 8 7 6 5 5 3 3 1 0 1 2 2 3 4 5 7 9 11 13 16 18 21 24 25 27 31 34 36 38 39 40 45 46 43 41 41 40 43 46 45 39 37 39 44 51 57 58 56 55 54 51 48 44 41 42 43 41 39 37 33 31 32 32 30 28 28 28 29 29 29 29 29 29 28 25 23
11 12 12 12 12 11 11 10 10 10 8 7 7 6 5 4 4 4 3 3 4 4 5 6 7 8 10 12 13 15 17 20 21 22 25 27 30 33 34 35 40 45 47 48 47 43 41 45 49 46 40 43 51 57 60 60 59 56 53 50 50 48 47 47 47 45 42 39 37 37 37 36 34 32 33 33 33 32 32 31 31 29 27 24 21
12 13 14 16 16 16 15 14 14 13 11 10 10 9 8 7 6 6 6 5 4 3 3 4 6 8 9 11 12 13 14 16 18 21 23 26 29 32 34 35 37 41 44 47 50 51 48 46 49 51 50 52 57 61 59 60 61 59 54 50 49 48 48 48 48 46 44 42 42 42 41 39 37 37 37 36 36 35 34 32 31 28 25 23 21
14 16 19 20 20 20 19 19 18 16 15 14 13 12 12 11 9 9 8 7 7 6 5 4 3 3 4 5 7 8 9 11 13 16 19 23 26 29 31 35 37 40 43 44 46 50 53 53 54 56 57 59 61 61 60 62 64 62 58 53 50 49 50 49 48 48 47 46 47 47 43 41 40 39 37 36 36 35 34 32 30 28 25 23 22
Wind_Direction
205 207 209 211 213 213 213 214 214 214 214 214 213 213 213 213 214 214 214 213 212 212 212 212 212 213 214 214 216 217 217 217 217 217 217 218 218 219 221 222 224 224 225 227 228 231 236 240 245 252 258 269 283 293 295 292 292 295 307 317 311 296 284 275 276 285 299 302 291 277 260 255 255 266 288 258 208 133 112 112 99 83 60 28 9
202 208 210 212 215 216 216 214 213 214 214 214 213 212 213 213 214 214 214 214 213 212 213 213 213 214 215 215 217 217 218 219 219 219 219 220 220 221 222 223 224 225 227 229 231 234 238 242 247 253 259 268 278 285 289 290 292 296 307 316 309 292 282 273 278 292 300 297 293 288 260 254 253 256 269 240 209 163 129 127 101 65 42 14 4
199 208 212 213 215 216 215 211 211 214 215 215 214 213 214 214 214 214 214 215 214 213 214 215 215 216 217 219 219 221 222 222 223 224 224 224 225 226 226 225 225 227 229 231 233 235 239 244 247 253 259 267 276 281 286 289 293 298 306 310 303 292 285 279 286 292 283 277 281 263 230 236 241 241 247 224 207 191 157 144 113 46 32 13 8
198 205 210 211 214 216 215 213 212 214 215 216 215 214 214 214 213 213 213 214 214 214 215 216 217 218 220 222 223 225 228 228 228 229 228 227 227 228 229 227 227 229 232 234 236 237 240 245 248 252 258 266 273 278 284 290 295 300 303 303 296 289 283 282 289 286 261 245 243 227 211 213 222 221 227 217 205 202 194 180 178 235 18 26 37
199 203 208 210 213 215 217 217 215 215 215 216 215 214 213 213 213 212 213 214 215 216 216 216 217 218 220 222 224 225 228 229 229 229 228 226 226 227 228 229 230 232 234 237 239 239 241 244 247 252 257 263 270 278 285 290 295 299 301 300 294 285 277 278 283 274 242 227 216 199 192 204 217 208 212 215 210 212 214 204 202 209 213 75 88
205 206 209 211 212 214 217 219 218 218 217 216 215 214 213 213 212 213 214 214 215 217 217 217 218 218 219 220 221 222 224 226 227 228 227 226 225 226 227 230 232 234 236 238 240 241 242 244 247 251 255 260 267 276 282 287 294 297 297 295 291 284 278 276 276 260 234 230 226 220 205 191 204 205 209 219 220 227 230 220 211 207 197 171 128
207 208 210 211 213 215 218 220 220 219 218 216 216 215 215 215 214 214 215 216 217 218 218 218 219 219 220 221 223 224 225 227 229 230 230 228 227 228 228 230 232 235 236 238 241 242 244 245 246 249 253 257 264 271 278 285 290 292 292 289 283 281 282 279 270 249 232 232 232 234 230 212 204 211 217 231 235 238 238 223 212 211 205 192 165
205 207 210 213 216 218 221 221 220 219 219 218 217 217 216 216 216 216 217 218 219 219 220 219 219 220 221 223 225 227 228 230 233 234 233 231 229 229 230 230 232 234 236 238 240 242 244 245 246 248 251 255 260 266 274 281 285 286 286 284 281 282 286 281 262 237 223 230 237 240 239 224 218 228 234 243 247 243 231 215 210 215 216 208 192
208 209 213 216 219 222 224 223 222 222 221 220 219 218 218 218 218 218 218 220 221 221 222 221 221 221 223 225 226 228 230 232 234 236 237 235 231 231 231 231 232 234 236 237 239 241 242 244 247 248 250 253 259 264 270 276 281 283 282 282 282 279 280 272 252 229 216 223 236 245 248 231 222 231 239 241 241 233 214 209 216 225 225 222 214
213 214 217 221 223 225 226 225 225 224 224 223 222 222 222 221 221 221 221 221 222 222 223 223 223 223 224 226 228 229 231 232 233 235 236 237 235 233 232 232 233 234 237 238 238 240 241 243 245 247 250 252 257 262 267 271 275 278 279 278 274 271 268 259 243 228 219 222 232 243 248 239 228 231 235 235 234 229 219 216 227 232 231 233 233
215 217 218 223 226 226 226 226 227 227 226 226 225 225 225 225 224 224 223 222 223 223 223 223 224 225 226 227 229 230 231 232 233 233 235 235 235 235 234 233 233 234 237 238 239 240 241 242 244 247 249 251 255 260 262 266 270 271 270 268 266 263 259 251 239 229 226 227 235 243 247 243 236 235 236 235 233 232 235 238 241 240 236 238 241
214 217 218 221 224 224 224 226 228 228 227 227 227 227 227 228 227 226 225 224 224 223 222 223 224 225 226 228 229 231 232 233 233 234 235 235 236 235 235 233 233 234 235 237 238 240 241 242 243 246 248 250 253 258 259 260 263 263 262 260 259 255 250 247 240 232 232 234 239 245 246 242 240 237 233 232 233 236 242 248 250 248 246 245 244
212 216 219 220 223 224 224 226 228 228 228 228 227 227 228 228 228 227 227 225 224 224 224 223 224 225 226 227 229 230 232 234 234 235 236 237 238 237 236 234 232 232 233 235 237 239 241 242 244 247 250 252 254 257 257 256 257 258 257 255 254 251 247 245 240 235 234 234 236 238 236 235 241 241 235 232 235 241 244 247 250 252 253 252 247
210 214 218 220 223 225 225 227 228 227 229 229 227 227 228 229 228 227 227 226 225 225 225 225 226 226 227 228 229 229 230 233 235 236 237 238 238 238 238 236 234 233 234 237 239 240 242 243 246 249 253 254 254 254 254 252 253 254 253 252 251 249 245 243 239 233 230 229 230 232 232 231 235 240 240 237 236 242 245 245 252 254 249 246 247
210 213 218 221 223 225 226 228 229 228 228 228 228 228 228 229 228 228 228 227 226 226 226 227 227 227 228 228 229 229 230 232 234 236 237 238 239 239 239 238 237 236 236 238 240 242 244 246 248 251 254 255 253 251 250 249 249 250 249 249 248 246 243 240 237 232 231 231 231 231 233 236 237 237 240 241 241 244 243 240 246 247 239 241 247
207 211 218 222 224 225 225 227 229 229 229 228 229 229 228 229 229 229 229 229 228 228 228 228 227 227 227 228 229 230 231 232 233 235 237 238 239 239 239 239 240 240 238 238 239 241 244 246 248 251 254 255 253 250 248 246 245 246 247 246 245 245 243 240 237 234 233 235 237 237 237 241 243 239 238 241 245 249 248 241 237 234 233 242 252
208 213 219 222 223 224 225 226 228 228 229 229 230 230 229 229 229 230 230 230 231 230 230 230 229 228 228 229 230 232 232 233 234 234 236 238 239 239 240 240 240 240 239 237 237 239 242 244 247 249 252 253 252 248 246 244 243 244 244 244 244 244 243 242 240 235 233 234 238 241 241 243 245 244 242 242 244 250 253 249 244 241 241 245 251
214 218 220 221 222 224 225 226 227 228 229 230 231 231 231 230 230 230 230 230 231 232 232 232 232 231 231 230 231 232 233 234 236 236 237 238 239 240 239 239 238 238 237 234 234 236 239 242 244 246 249 250 249 247 244 242 242 242 242 241 242 242 241 241 239 236 234 233 235 239 241 242 243 246 248 248 249 251 253 253 253 252 250 248 250
216 220 220 220 221 223 224 225 226 227 228 230 231 231 231 232 232 231 232 232 232 232 232 233 233 233 233 233 232 233 233 235 236 237 238 238 239 239 238 238 236 236 235 232 231 232 235 239 241 244 246 246 246 245 242 241 242 242 240 240 240 240 240 240 238 237 234 232 234 236 239 241 242 244 248 251 254 255 254 254 254 253 253 253 255
219 220 220 220 221 222 224 225 226 226 228 229 230 230 231 232 232 232 233 233 233 234 234 234 234 234 234 235 235 234 234 235 236 237 238 238 238 238 238 237 236 235 233 232 231 231 232 235 238 241 243 243 243 242 241 241 242 241 240 239 238 239 240 240 238 237 236 234 234 236 238 239 240 242 246 250 254 256 256 255 253 253 253 255 258
222 221 221 222 222 223 224 225 227 227 228 227 227 229 230 231 232 233 232 233 233 234 235 237 236 235 236 236 236 236 236 236 236 237 237 238 238 238 237 237 237 236 234 232 232 231 231 233 236 239 241 241 241 241 241 241 242 242 240 239 239 238 240 240 239 238 237 236 235 237 239 239 240 242 244 248 251 254 256 257 256 255 255 257 259
224 223 224 223 223 224 222 223 225 225 227 227 225 227 229 229 232 233 232 232 233 234 235 237 237 237 238 238 238 238 238 237 237 237 237 237 238 238 237 237 237 236 234 233 232 232 231 232 234 237 238 239 240 240 242 242 242 242 241 239 238 238 239 240 240 238 238 238 238 239 241 242 243 245 246 248 250 252 254 256 259 259 260 262 261
228 225 225 224 225 225 222 221 224 225 227 228 226 227 229 230 231 232 232 233 234 235 236 236 236 237 239 239 239 239 239 239 238 237 237 237 238 238 238 237 237 236 236 234 232 232 232 232 234 236 237 238 238 239 241 242 242 242 242 240 239 239 240 241 241 241 241 241 241 242 244 245 246 249 251 253 254 255 255 256 259 262 264 266 264
235 231 228 226 227 227 224 222 224 224 224 225 227 228 230 230 231 231 233 234 235 235 236 237 236 237 238 238 239 239 240 239 239 239 238 238 238 238 238 237 237 237 237 235 234 234 234 233 233 235 236 236 237 238 239 241 241 242 242 241 240 240 241 242 243 244 245 246 246 246 248 250 251 253 254 256 257 258 259 259 260 262 263 265 265
243 238 234 231 229 228 227 225 224 223 221 222 225 228 229 230 231 232 233 234 234 234 236 237 236 235 236 237 238 239 240 240 239 240 239 239 239 239 238 237 236 237 237 236 235 235 235 234 233 234 236 236 236 237 239 239 240 241 241 242 242 241 242 243 245 245 246 247 248 249 250 251 253 254 256 257 257 258 259 260 260 261 261 261 263
249 244 238 235 232 228 228 228 225 223 222 221 222 224 227 230 232 232 233 233 233 234 235 236 236 234 235 237 238 239 239 240 240 241 240 240 240 239 239 238 237 237 236 236 235 235 235 235 234 234 235 236 236 237 239 239 239 240 240 241 242 242 242 244 245 246 247 247 247 248 249 250 251 253 254 256 257 258 258 257 257 258 259 259 259
255 248 240 236 234 231 230 230 228 226 225 223 222 223 225 228 230 231 232 232 233 233 234 235 235 234 235 237 238 239 239 240 241 241 241 241 241 240 240 239 238 237 237 236 236 236 236 236 235 235 236 236 237 238 239 239 239 239 239 240 242 242 243 243 244 246 246 246 246 245 246 248 249 250 251 252 254 255 255 255 255 256 257 257 256
267 258 250 242 238 236 234 232 231 230 228 225 224 225 225 226 229 230 231 232 234 234 234 235 235 234 236 238 239 239 239 240 241 242 242 241 241 240 240 239 238 238 238 237 237 237 237 237 237 236 236 236 236 237 238 238 238 238 239 239 240 241 242 243 244 245 245 245 244 243 243 245 246 248 249 251 251 252 253 254 253 253 255 256 255
279 275 268 258 250 244 240 236 232 230 228 226 225 226 225 225 227 228 230 232 234 234 234 234 234 235 238 239 238 238 238 239 240 241 241 241 241 241 240 239 238 238 239 238 238 239 239 239 239 238 237 236 236 236 237 237 237 237 238 238 239 240 240 241 242 243 243 244 243 242 242 243 245 248 249 250 251 253 254 253 251 251 253 255 256
286 282 275 271 264 256 249 242 235 231 229 227 226 225 224 224 225 226 229 231 233 233 232 232 234 238 239 238 237 237 238 238 239 240 241 240 240 241 240 239 239 238 238 238 238 239 239 240 240 239 238 238 236 236 236 237 237 237 237 238 238 239 239 240 241 241 241 242 243 244 244 244 246 248 248 248 250 254 256 256 253 249 249 251 254
282 275 273 280 277 266 255 246 240 236 232 229 227 226 224 224 225 226 227 229 230 231 230 232 237 238 236 235 236 237 237 238 239 240 240 239 240 240 240 240 239 238 238 238 238 238 240 241 241 240 239 239 237 236 236 237 238 237 238 237 237 238 239 239 241 241 241 242 244 246 245 243 243 245 247 249 251 256 259 258 252 246 243 244 246
273 266 271 284 283 273 262 255 249 242 236 233 230 226 224 224 225 227 227 227 228 230 230 233 236 234 232 234 236 236 237 239 240 240 240 240 239 240 240 240 239 239 239 238 238 238 239 241 242 242 241 240 239 238 237 238 238 238 238 238 237 237 238 239 240 240 241 242 244 245 244 241 241 242 245 250 254 258 261 258 251 245 241 238 239
270 267 271 279 281 277 271 266 259 249 242 238 232 228 227 227 227 227 226 226 228 231 232 234 234 233 233 235 235 236 237 239 240 240 240 240 239 240 240 240 240 239 239 240 239 239 239 241 242 243 243 242 242 240 239 239 239 238 238 237 237 237 238 240 240 239 240 241 243 244 244 242 240 239 241 248 255 259 261 260 252 244 238 234 233
268 269 271 274 276 277 275 269 261 254 248 240 234 233 233 232 228 226 225 226 228 230 231 233 234 233 234 234 234 236 238 239 239 239 239 239 239 240 240 240 240 240 240 240 240 240 240 241 243 244 245 245 244 243 242 240 239 238 237 237 237 237 239 241 240 239 239 241 243 244 244 242 240 238 239 247 256 259 259 258 251 241 235 231 229
265 269 271 272 275 277 277 271 259 250 245 238 234 233 233 231 229 227 226 227 228 229 230 231 232 232 232 233 234 235 236 237 238 238 238 239 239 239 240 240 240 240 240 241 240 241 241 242 243 244 246 246 245 245 245 243 241 239 238 237 237 237 240 242 241 239 239 241 243 245 245 243 240 238 239 245 255 258 255 255 249 238 231 229 229
262 268 270 272 273 275 277 272 254 241 239 236 233 231 229 228 229 228 228 229 230 230 230 231 232 232 232 232 233 235 236 237 237 237 237 238 239 240 240 240 240 240 241 241 241 241 242 242 243 244 245 246 246 247 248 246 244 242 240 239 237 237 240 243 242 239 239 241 243 243 244 243 242 240 241 244 250 253 250 250 243 232 227 227 228
258 264 269 270 270 272 274 265 239 226 231 234 232 230 229 228 228 229 229 229 230 231 232 233 233 233 234 235 236 237 237 237 237 237 239 239 240 241 241 240 240 240 241 241 241 240 241 242 243 244 245 246 247 248 250 249 248 246 244 241 239 238 240 243 243 241 239 240 241 241 242 244 245 245 244 242 243 245 243 242 235 227 224 223 226
254 262 267 267 264 263 259 241 219 215 225 233 232 229 228 228 228 229 229 229 230 233 235 235 234 234 236 239 241 240 240 239 239 240 241 241 241 241 242 241 241 240 240 241 241 241 241 241 242 244 246 247 248 248 250 251 249 247 245 243 242 240 241 244 244 242 241 241 240 241 242 244 245 245 242 238 237 237 236 233 229 224 222 220 222
239 248 253 249 240 228 214 200 197 200 209 226 234 230 226 227 228 229 230 230 233 236 236 235 235 237 240 242 242 241 240 240 243 244 243 242 242 243 243 243 242 241 241 241 241 241 241 240 241 243 245 247 247 248 250 250 248 246 245 245 244 242 242 244 243 242 241 241 240 239 240 241 241 240 237 231 228 228 227 226 224 222 220 218 219
182 188 190 185 186 189 186 181 185 192 195 203 217 225 226 228 229 230 231 234 237 239 239 239 240 242 243 241 240 240 241 242 245 246 246 245 246 245 244 244 244 243 243 242 242 242 242 240 239 240 242 243 244 245 247 249 248 245 244 244 243 241 240 242 242 241 241 241 240 239 237 236 235 235 231 223 219 220 221 220 222 224 223 221 221
132 131 132 137 147 158 158 157 161 172 181 184 189 204 218 224 228 231 235 240 243 244 243 243 242 242 242 241 241 242 244 245 247 248 247 247 247 246 244 245 245 244 243 243 243 244 245 244 242 241 241 242 243 243 244 246 247 246 243 241 241 239 237 238 239 239 239 240 241 239 236 233 231 230 223 214 214 218 218 218 223 227 227 224 220
123 119 119 121 122 125 128 130 137 148 161 168 171 179 193 208 220 228 235 239 241 241 241 242 242 242 242 242 243 244 246 247 248 248 248 248 247 246 245 246 246 244 243 244 244 244 246 247 246 245 244 245 244 244 244 244 245 245 242 241 240 237 235 235 236 235 236 238 239 238 234 231 228 223 218 213 214 217 218 220 224 224 220 214 205
126 124 122 120 118 117 116 115 119 128 138 149 160 165 171 186 204 216 225 231 235 238 240 242 243 243 244 245 246 247 249 249 249 250 251 250 249 247 246 245 245 244 244 245 245 244 244 245 244 244 245 246 246 247 247 246 245 243 241 239 239 237 233 231 231 231 231 234 235 233 229 227 222 218 215 213 214 216 218 219 219 216 209 199 192
128 126 124 124 123 118 114 113 114 117 124 133 145 156 162 174 191 204 215 224 231 237 242 245 247 247 248 249 250 251 252 251 251 252 251 249 248 248 247 247 246 245 244 244 243 242 242 241 240 241 245 246 246 246 247 246 246 244 240 237 237 235 231 227 226 226 227 228 227 224 222 220 217 214 212 212 213 215 215 214 212 208 201 193 189
124 123 123 123 122 118 116 116 114 114 119 124 132 146 157 165 178 194 207 218 225 231 237 243 249 252 253 254 254 254 254 254 254 253 251 249 247 246 246 247 247 244 242 241 241 241 241 239 240 243 246 247 247 246 244 243 243 243 241 238 236 233 227 221 219 219 220 219 217 218 218 214 211 209 207 207 210 210 209 208 207 203 196 192 192
122 121 121 121 119 118 118 118 115 115 118 119 125 135 144 150 161 180 197 213 222 228 232 236 241 248 253 254 256 256 256 256 256 254 252 251 249 247 247 248 246 244 242 241 240 241 242 239 241 244 245 245 245 244 242 241 240 238 238 238 236 232 224 215 212 213 213 211 212 214 211 205 204 206 206 206 206 204 202 201 200 197 195 194 196
121 119 119 121 119 115 114 113 109 108 108 110 116 122 125 132 141 158 181 202 219 229 236 239 240 243 246 248 251 253 254 256 256 255 253 252 251 249 248 247 246 244 242 242 242 243 243 242 243 245 244 242 242 242 242 242 239 235 234 232 229 227 221 213 210 210 207 206 207 206 201 198 199 202 203 202 200 198 196 195 193 193 196 198 202
115 118 123 126 124 120 119 116 108 101 94 89 89 85 79 83 77 8 262 270 281 273 267 261 250 247 245 245 247 248 249 251 253 253 254 253 252 251 249 249 250 248 245 245 245 243 244 245 246 246 244 242 241 242 242 242 238 235 233 228 223 219 213 209 209 206 203 203 203 196 191 192 194 195 193 192 192 192 192 193 193 194 197 201 207
102 111 117 119 118 115 113 108 101 95 89 80 75 65 50 36 10 347 332 316 300 280 269 262 252 246 242 239 239 240 242 245 247 248 250 251 251 252 253 254 256 255 254 254 251 248 248 249 249 249 246 242 245 249 249 246 241 238 234 229 225 218 208 204 206 204 201 202 199 190 187 190 192 191 189 189 190 190 190 192 194 196 199 205 212
95 101 103 104 104 103 100 96 90 86 81 76 70 63 55 43 27 13 3 351 343 328 290 263 252 249 244 239 238 238 240 245 248 250 251 251 251 250 250 253 256 256 257 257 255 253 253 252 252 254 252 250 255 261 259 250 244 241 237 232 228 221 212 206 206 205 203 200 193 187 188 192 191 190 189 190 191 191 190 190 193 196 201 207 212
90 92 93 93 94 94 92 90 88 87 88 85 81 77 72 64 56 50 41 34 31 29 25 20 357 309 279 267 260 256 256 259 262 264 265 264 262 258 256 256 258 258 258 258 257 257 256 253 253 254 254 254 259 262 257 251 248 246 239 231 223 217 212 208 206 207 206 197 189 187 190 190 189 189 191 193 192 191 190 190 193 198 203 205 205